Biloxi, MS

1:43 AM CDT on May 27, 2017 (GMT -0500)
Keesler Air Force Base

Weather History for KBIX - March, 2013

Change the Weather History Date:

Thursday, March 14, 2013

  Actual Average Record
Temperature  
Mean Temperature 52 °F -  
Max Temperature 65 °F 68 °F 80 °F (1963)
Min Temperature 40 °F 48 °F 24 °F (1993)
Degree Days  
Heating Degree Days 13    
Growing Degree Days 2 (Base 50)    
Moisture  
Dew Point 31 °F    
Average Humidity 48    
Maximum Humidity 83    
Minimum Humidity 21    
Precipitation  
Precipitation 0.00 in - - ()
Sea Level Pressure  
Sea Level Pressure 30.38 in    
Wind  
Wind Speed 8 mph (NNW)    
Max Wind Speed 16 mph    
Max Gust Speed -    
Visibility 10 miles    
Events      
Averages and records for this station are not official NWS values.
T = Trace of Precipitation, MM = Missing Value Source: NWS Daily Summary

Daily Weather History Graph

Daily Weather History Graph

Search for Another Location

Airport or City:

Trip Planner

Search our weather history database for the weather conditions in past years. The results will help you decide how hot, cold, wet, or windy it might be!

Date:

Astronomy

Mar. 14, 2013 Rise Set
Actual Time 7:06 AM CDT 7:03 PM CDT
Civil Twilight 6:42 AM CDT 7:27 PM CDT
Nautical Twilight 6:14 AM CDT 7:55 PM CDT
Astronomical Twilight 5:46 AM CDT 8:23 PM CDT
Moon 8:35 AM CDT (3/14) 10:02 PM CDT (3/14)
Length of Visible Light 12h 44m
Length of Day
11h 57m
Waxing Crescent, 9% of the Moon is Illuminated
Mar 14
Waxing Crescent
Mar 19
First Quarter
Mar 27
Full
Apr 2
Last Quarter
Apr 10
New

Hourly Weather History & Observations

Time (CDT) Temp. Windchill Dew Point Humidity Pressure Visibility Wind Dir Wind Speed Gust Speed Precip Events Conditions
12:58 AM 48.2 °F - 25.2 °F 41% 30.38 in 10.0 mi North 9.2 mph - N/A   Clear
1:58 AM 46.9 °F - 26.2 °F 44% 30.38 in 10.0 mi North 10.4 mph - N/A   Clear
2:58 AM 45.1 °F 41.4 °F 27.0 °F 49% 30.38 in 10.0 mi NNE 6.9 mph - N/A   Clear
3:58 AM 44.2 °F 41.0 °F 28.0 °F 53% 30.37 in 10.0 mi NNE 5.8 mph - N/A   Clear
4:58 AM 44.1 °F 39.5 °F 28.6 °F 55% 30.38 in 10.0 mi NNE 8.1 mph - N/A   Clear
5:58 AM 42.1 °F 36.1 °F 28.0 °F 58% 30.39 in 10.0 mi NE 10.4 mph - N/A   Clear
6:58 AM 40.5 °F 35.8 °F 27.3 °F 59% 30.41 in 10.0 mi NE 6.9 mph - N/A   Clear
7:58 AM 41.4 °F 36.8 °F 28.4 °F 60% 30.44 in 10.0 mi NNE 6.9 mph - N/A   Clear
8:58 AM 45.5 °F 38.6 °F 26.2 °F 47% 30.46 in 10.0 mi NE 16.1 mph - N/A   Clear
9:58 AM 49.8 °F - 23.4 °F 36% 30.45 in 10.0 mi NE 11.5 mph - N/A   Clear
10:58 AM 54.9 °F - 21.6 °F 27% 30.44 in 10.0 mi NE 9.2 mph - N/A   Clear
11:58 AM 58.5 °F - 19.4 °F 22% 30.43 in 10.0 mi Variable 6.9 mph - N/A   Clear
12:58 PM 61.2 °F - 21.2 °F 22% 30.41 in 10.0 mi North 8.1 mph - N/A   Clear
1:58 PM 63.1 °F - 21.7 °F 21% 30.38 in 10.0 mi Variable 4.6 mph - N/A   Clear
2:58 PM 64.8 °F - 23.5 °F 21% 30.35 in 10.0 mi SW 10.4 mph - N/A   Clear
3:58 PM 61.2 °F - 33.6 °F 36% 30.33 in 10.0 mi SW 12.7 mph - N/A   Clear
4:58 PM 60.4 °F - 33.6 °F 37% 30.32 in 10.0 mi SW 8.1 mph - N/A   Clear
5:58 PM 59.0 °F - 38.1 °F 46% 30.32 in 10.0 mi WSW 10.4 mph - N/A   Clear
6:58 PM 54.9 °F - 39.2 °F 56% 30.32 in 10.0 mi SW 8.1 mph - N/A   Clear
7:58 PM 51.4 °F - 39.9 °F 65% 30.32 in 10.0 mi SW 4.6 mph - N/A   Clear
8:58 PM 50.9 °F - 40.6 °F 68% 30.34 in 10.0 mi WSW 6.9 mph - N/A   Clear
9:58 PM 52.7 °F - 43.2 °F 70% 30.34 in 10.0 mi Calm Calm - N/A   Clear
10:58 PM 51.8 °F - 45.0 °F 77% 30.33 in 10.0 mi WSW 1.2 mph - N/A   Clear
11:58 PM 52.0 °F - 46.9 °F 83% 30.33 in 10.0 mi WSW 4.6 mph - N/A   Clear